When you browse on this site, cookies collect data to enhance your experience and personalize the content and advertising you see.
Visit our Privacy Policy to learn more. By continuing to use the site, you agree to this use of cookies and data.
  • en France
  • Liste des pays
  • À 7 jours
  • Température de l'eau
  • Carte satellitaire
  • Carte météo
  • Widgets météo
  • user-avatar
    Se connecter

    Météo par heure à Cacalomacán

    Ce jour, 19 Juillet, Vendredi

    Heure Température Précipitation Vent Pression Humidité
    00:00 +11°C° 0.5 mm 1 m/s 545 mmHg 95%
    01:00 +11°C° 0.5 mm 1 m/s 545 mmHg 95%
    02:00 +11°C° 0.5 mm 1 m/s 545 mmHg 95%
    03:00 +10°C° 0.1 mm 1 m/s 545 mmHg 94%
    04:00 +10°C° 0.1 mm 1 m/s 545 mmHg 93%
    05:00 +9°C° 0.1 mm 0 m/s 545 mmHg 92%
    06:00 +11°C° 0 mm 0 m/s 546 mmHg 86%
    07:00 +14°C° 0 mm 1 m/s 547 mmHg 81%
    08:00 +15°C° 0 mm 1 m/s 548 mmHg 75%
    09:00 +18°C° 0.3 mm 1 m/s 549 mmHg 69%
    10:00 +19°C° 0.3 mm 1 m/s 549 mmHg 62%
    11:00 +19°C° 0.3 mm 2 m/s 550 mmHg 56%
    12:00 +19°C° 0.6 mm 2 m/s 549 mmHg 59%
    13:00 +18°C° 0.6 mm 2 m/s 548 mmHg 63%
    14:00 +18°C° 0.6 mm 2 m/s 547 mmHg 66%
    15:00 +18°C° 1.1 mm 1 m/s 546 mmHg 74%
    16:00 +15°C° 1.1 mm 1 m/s 545 mmHg 81%
    17:00 +14°C° 1.1 mm 1 m/s 545 mmHg 88%
    18:00 +13°C° 2.8 mm 1 m/s 545 mmHg 90%
    19:00 +12°C° 2.8 mm 2 m/s 544 mmHg 92%
    20:00 +9°C° 2.8 mm 2 m/s 544 mmHg 94%
    21:00 +10°C° 0.3 mm 1 m/s 545 mmHg 93%
    22:00 +11°C° 0.3 mm 1 m/s 545 mmHg 92%
    23:00 +10°C° 0.3 mm 0 m/s 545 mmHg 91%

    Demain, 20 Juillet, Samedi

    Heure Température Précipitation Vent Pression Humidité
    00:00 +9°C° 0 mm 0 m/s 545 mmHg 92%
    01:00 +9°C° 0 mm 0 m/s 544 mmHg 92%
    02:00 +9°C° 0 mm 0 m/s 544 mmHg 93%
    03:00 +9°C° 0 mm 0 m/s 544 mmHg 93%
    04:00 +8°C° 0 mm 0 m/s 544 mmHg 94%
    05:00 +8°C° 0 mm 0 m/s 543 mmHg 94%
    06:00 +11°C° 0 mm 1 m/s 545 mmHg 87%
    07:00 +13°C° 0 mm 1 m/s 546 mmHg 80%
    08:00 +15°C° 0 mm 1 m/s 547 mmHg 73%
    09:00 +16°C° 0 mm 1 m/s 548 mmHg 65%
    10:00 +19°C° 0 mm 1 m/s 549 mmHg 57%
    11:00 +21°C° 0 mm 1 m/s 550 mmHg 49%
    12:00 +21°C° 0.3 mm 1 m/s 549 mmHg 52%
    13:00 +19°C° 0.3 mm 2 m/s 548 mmHg 55%
    14:00 +19°C° 0.3 mm 2 m/s 547 mmHg 58%
    15:00 +19°C° 0.6 mm 1 m/s 547 mmHg 66%
    16:00 +16°C° 0.6 mm 1 m/s 546 mmHg 74%
    17:00 +15°C° 0.6 mm 1 m/s 545 mmHg 81%
    18:00 +14°C° 0.4 mm 1 m/s 545 mmHg 84%
    19:00 +12°C° 0.4 mm 0 m/s 545 mmHg 87%
    20:00 +11°C° 0.4 mm 0 m/s 545 mmHg 90%
    21:00 +10°C° 0.1 mm 0 m/s 545 mmHg 87%
    22:00 +11°C° 0.1 mm 1 m/s 544 mmHg 84%
    23:00 +10°C° 0.1 mm 1 m/s 544 mmHg 81%

    Après-demain, 21 Juillet, Dimanche

    Heure Température Précipitation Vent Pression Humidité
    00:00 +10°C° 0 mm 1 m/s 544 mmHg 82%
    01:00 +9°C° 0 mm 1 m/s 544 mmHg 83%
    02:00 +9°C° 0 mm 1 m/s 543 mmHg 84%
    03:00 +9°C° 0 mm 1 m/s 543 mmHg 85%
    04:00 +9°C° 0 mm 1 m/s 543 mmHg 85%
    05:00 +9°C° 0 mm 1 m/s 544 mmHg 86%
    06:00 +10°C° 0.1 mm 1 m/s 545 mmHg 85%
    07:00 +12°C° 0.1 mm 1 m/s 546 mmHg 84%
    08:00 +12°C° 0.1 mm 0 m/s 547 mmHg 83%
    09:00 +14°C° 0.3 mm 1 m/s 547 mmHg 80%
    10:00 +15°C° 0.3 mm 1 m/s 548 mmHg 77%
    11:00 +16°C° 0.3 mm 1 m/s 548 mmHg 75%
    12:00 +16°C° 1.5 mm 1 m/s 547 mmHg 78%
    13:00 +16°C° 1.5 mm 1 m/s 547 mmHg 81%
    14:00 +16°C° 1.5 mm 1 m/s 546 mmHg 84%
    15:00 +15°C° 1.8 mm 1 m/s 546 mmHg 87%
    16:00 +14°C° 1.8 mm 1 m/s 545 mmHg 91%
    17:00 +13°C° 1.8 mm 1 m/s 544 mmHg 94%
    18:00 +12°C° 0.9 mm 1 m/s 545 mmHg 94%
    19:00 +12°C° 0.9 mm 1 m/s 545 mmHg 94%
    20:00 +11°C° 0.9 mm 1 m/s 546 mmHg 94%
    21:00 +11°C° 0.2 mm 1 m/s 546 mmHg 94%
    22:00 +11°C° 0.2 mm 1 m/s 546 mmHg 95%
    23:00 +11°C° 0.2 mm 1 m/s 546 mmHg 95%

    22 Juillet, Lundi

    Heure Température Précipitation Vent Pression Humidité
    00:00 +11°C° 0 mm 1 m/s 546 mmHg 94%
    01:00 +10°C° 0 mm 0 m/s 545 mmHg 94%
    02:00 +9°C° 0 mm 0 m/s 545 mmHg 94%
    03:00 +9°C° 0 mm 0 m/s 545 mmHg 93%
    04:00 +9°C° 0 mm 0 m/s 545 mmHg 92%
    05:00 +9°C° 0 mm 0 m/s 545 mmHg 91%
    06:00 +11°C° 0 mm 0 m/s 546 mmHg 87%
    07:00 +12°C° 0 mm 0 m/s 547 mmHg 83%
    08:00 +14°C° 0 mm 0 m/s 548 mmHg 78%
    09:00 +14°C° 0.7 mm 0 m/s 548 mmHg 78%
    10:00 +16°C° 0.7 mm 1 m/s 548 mmHg 78%
    11:00 +16°C° 0.7 mm 1 m/s 548 mmHg 78%
    12:00 +16°C° 1.1 mm 1 m/s 548 mmHg 77%
    13:00 +18°C° 1.1 mm 1 m/s 547 mmHg 76%
    14:00 +18°C° 1.1 mm 1 m/s 547 mmHg 75%
    15:00 +16°C° 1.1 mm 1 m/s 546 mmHg 80%
    16:00 +14°C° 1.1 mm 0 m/s 546 mmHg 84%
    17:00 +13°C° 1.1 mm 0 m/s 545 mmHg 89%
    18:00 +13°C° 1.7 mm 1 m/s 545 mmHg 91%
    19:00 +12°C° 1.7 mm 1 m/s 545 mmHg 93%
    20:00 +11°C° 1.7 mm 1 m/s 545 mmHg 95%
    21:00 +11°C° 0.4 mm 1 m/s 545 mmHg 94%
    22:00 +11°C° 0.4 mm 1 m/s 545 mmHg 94%
    23:00 +11°C° 0.4 mm 1 m/s 545 mmHg 93%

    23 Juillet, Mardi

    Heure Température Précipitation Vent Pression Humidité
    00:00 +11°C° 0.6 mm 1 m/s 545 mmHg 94%
    01:00 +11°C° 0.6 mm 1 m/s 545 mmHg 95%
    02:00 +11°C° 0.6 mm 1 m/s 545 mmHg 96%
    03:00 +11°C° 0.3 mm 1 m/s 545 mmHg 95%
    04:00 +10°C° 0.3 mm 0 m/s 545 mmHg 95%
    05:00 +9°C° 0.3 mm 0 m/s 545 mmHg 94%
    06:00 +11°C° 0.1 mm 0 m/s 546 mmHg 90%
    07:00 +12°C° 0.1 mm 0 m/s 547 mmHg 85%
    08:00 +14°C° 0.1 mm 0 m/s 548 mmHg 80%
    09:00 +16°C° 0.4 mm 1 m/s 548 mmHg 77%
    10:00 +18°C° 0.4 mm 1 m/s 549 mmHg 73%
    11:00 +18°C° 0.4 mm 2 m/s 549 mmHg 69%
    12:00 +19°C° 1.4 mm 1 m/s 548 mmHg 72%
    13:00 +18°C° 1.4 mm 1 m/s 547 mmHg 74%
    14:00 +18°C° 1.4 mm 1 m/s 547 mmHg 77%
    15:00 +16°C° 1.3 mm 1 m/s 546 mmHg 82%
    16:00 +15°C° 1.3 mm 1 m/s 546 mmHg 87%
    17:00 +14°C° 1.3 mm 1 m/s 545 mmHg 91%
    18:00 +13°C° 1.9 mm 1 m/s 545 mmHg 92%
    19:00 +12°C° 1.9 mm 1 m/s 545 mmHg 94%
    20:00 +10°C° 1.9 mm 2 m/s 545 mmHg 95%
    21:00 +11°C° 0.2 mm 1 m/s 545 mmHg 94%
    22:00 +11°C° 0.2 mm 1 m/s 545 mmHg 93%
    23:00 +11°C° 0.2 mm 1 m/s 546 mmHg 91%

    24 Juillet, Mercredi

    Heure Température Précipitation Vent Pression Humidité
    00:00 +11°C° 0.1 mm 1 m/s 545 mmHg 92%
    01:00 +11°C° 0.1 mm 1 m/s 545 mmHg 93%
    02:00 +10°C° 0.1 mm 0 m/s 545 mmHg 94%
    03:00 +9°C° 0.1 mm 0 m/s 545 mmHg 94%
    04:00 +9°C° 0.1 mm 0 m/s 545 mmHg 94%
    05:00 +9°C° 0.1 mm 0 m/s 545 mmHg 95%
    06:00 +10°C° 0 mm 0 m/s 546 mmHg 90%
    07:00 +12°C° 0 mm 0 m/s 547 mmHg 86%
    08:00 +13°C° 0 mm 0 m/s 548 mmHg 81%
    09:00 +15°C° 0.8 mm 1 m/s 548 mmHg 80%
    10:00 +16°C° 0.8 mm 1 m/s 548 mmHg 79%
    11:00 +18°C° 0.8 mm 1 m/s 548 mmHg 78%
    12:00 +18°C° 1.8 mm 1 m/s 547 mmHg 79%
    13:00 +16°C° 1.8 mm 1 m/s 547 mmHg 81%
    14:00 +16°C° 1.8 mm 1 m/s 546 mmHg 83%
    15:00 +15°C° 2.8 mm 1 m/s 545 mmHg 87%
    16:00 +14°C° 2.8 mm 1 m/s 545 mmHg 92%
    17:00 +13°C° 2.8 mm 1 m/s 544 mmHg 96%
    18:00 +12°C° 3.5 mm 1 m/s 545 mmHg 96%
    19:00 +12°C° 3.5 mm 1 m/s 545 mmHg 96%
    20:00 +11°C° 3.5 mm 1 m/s 545 mmHg 96%
    21:00 +11°C° 1.9 mm 1 m/s 545 mmHg 96%
    22:00 +10°C° 1.9 mm 1 m/s 545 mmHg 96%
    23:00 +10°C° 1.9 mm 1 m/s 545 mmHg 96%
    Voir plus